Regional Weather Roundup
Issued by NWS

Home | Current Version | Previous Version | Text Only | Print | Product List | Glossary Off
Versions: 1 2 3 4 5 6 7 8 9 10 11 12 13 14 15 16 17 18 19 20 21 22 23 24 25 26 27 28 29 30 31 32 33 34 35 36 37 38 39 40 41 42 43 44 45 46 47 48 49 50

000
ASUS43 KMKX 010511
RWRWI

WISCONSIN REGIONAL WEATHER ROUNDUP
NATIONAL WEATHER SERVICE MILWAUKEE/SULLIVAN WI
1200 AM CDT WED JUN 01 2016

NOTE: "FAIR" INDICATES FEW OR NO CLOUDS BELOW 12,000 FEET WITH NO
SIGNIFICANT WEATHER AND/OR OBSTRUCTIONS TO VISIBILITY.

WIZ001-002-006>008-014>016-023>028-010600-
NORTHWEST WISCONSIN

CITY           SKY/WX    TMP DP  RH WIND       PRES   REMARKS
SUPERIOR ARPT  CLOUDY    42  42 100 E7        29.87F FOG
ASHLAND        FOG       48  47  96 CALM      29.86F VSB 1/2
HAYWARD        CLOUDY    59  57  93 CALM      29.86F
SIREN          PTCLDY    63  60  91 S10       29.84F
CUMBERLAND     CLOUDY    61  59  94 S10       29.87S
RICE LAKE      CLOUDY    62  60  93 S7        29.89S
CHETEK         CLOUDY    61  61  99 S6        29.88F
LADYSMITH      CLOUDY    62  60  96 S7        29.90S
EAU CLAIRE     CLOUDY    62  61  96 S9        29.88S
MENOMONIE      CLOUDY    63  63  99 S7        29.88F
NEW RICHMOND   CLEAR     60  60  99 S7        29.86F
OSCEOLA        CLEAR     62  62 100 S7        29.87F
$$

WIZ003>005-009-010-017-018-010600-
NORTH CENTRAL WISCONSIN

CITY           SKY/WX    TMP DP  RH WIND       PRES   REMARKS
MANITOWISH WTR CLOUDY    58  58 100 SE8       29.90S
ARBOR VITAE    LGT RAIN  59  58  94 S6        29.91S
WOODRUFF       LGT RAIN  59  58  94 S6        29.91S
RHINELANDER    LGT RAIN  59  57  93 SE7       29.92F
EAGLE RIVER    RAIN      57  55  91 SE6       29.92F
LAND O LAKES   RAIN      59  53  80 SE10      29.92F
PHILLIPS       CLOUDY    60  60 100 S5        29.89S
TOMAHAWK       RAIN      59  58  96 SE3       29.91S
MEDFORD        CLOUDY    60  60 100 S8        29.90F
MERRILL        RAIN      61  61 100 S6        29.92F
$$

WIZ029-030-035-036-043>047-010600-
CENTRAL WISCONSIN

CITY           SKY/WX    TMP DP  RH WIND       PRES   REMARKS
WAUSAU         LGT RAIN  62  59  90 SE7       29.91F
MOSINEE        LGT RAIN  59  59 100 SE6       29.94F
MARSHFIELD     LGT RAIN  62  59  90 SE9       29.90F
STEVENS POINT  LGT RAIN  59  59  99 SE3       29.95S
WAUPACA        CLOUDY    66  64  96 SE3       29.95F
WAUTOMA        RAIN     N/A N/A N/A CALM      29.95S
WISC RAPIDS    RAIN      62  59  90 SE5       29.93F
CAMP DOUGLAS   LGT RAIN  63  63 100 SE8       29.91F
$$

WIZ011>013-019>022-031-037>040-048>050-010600-
NORTHEAST WISCONSIN

CITY           SKY/WX    TMP DP  RH WIND       PRES   REMARKS
ANTIGO         LGT RAIN  57  57  98 SE12      29.96R
SHAWANO        CLOUDY    61  56  83 CALM      29.96S
OCONTO         CLOUDY   N/A N/A N/A CALM      29.94F
STURGEON BAY   LGT RAIN  60  51  72 E6        29.96S
GREEN BAY      CLOUDY    60  54  80 SE8       29.95S
MANITOWOC      LGT RAIN  58  50  75 S5        29.97R
APPLETON       LGT RAIN  61  54  77 SE7       29.94F
CLINTONVILLE   LGT RAIN  61  55  82 SE5       29.95S
OSHKOSH        CLOUDY    64  58  80 SE8       29.94F
$$

WIZ032>034-041-042-053>061-010600-
SOUTHWEST WISCONSIN

CITY           SKY/WX    TMP DP  RH WIND       PRES   REMARKS
LA CROSSE      CLOUDY    65  63  93 SW3       29.90S
SPARTA         CLOUDY    62  62  99 SE3       29.91F
VIROQUA        CLOUDY    62  62 100 S7        29.92F
BOSCOBEL       NOT AVBL
PRAIRIE DU CHI CLOUDY    63  62  96 CALM      29.92S
PLATTEVILLE    CLOUDY    64  62  96 S5G26     29.94R
$$

WIZ056-057-062-063-064-067-068-010600-
SOUTH CENTRAL WISCONSIN

CITY           SKY/WX    TMP DP  RH WIND       PRES   REMARKS
REEDSBURG      RAIN      62  62 100 CALM      29.95R
BARABOO/DELLS  RAIN      64  61  92 S6        29.96R
LONE ROCK      RAIN      64  63  96 CALM      29.95F
MINERAL POINT  LGT RAIN  64  63  94 CALM      29.94S
MADISON        CLOUDY    66  61  84 SW3       29.93S
MIDDLETON      CLOUDY    65  62  88 W6        29.95S
WATERTOWN      CLOUDY    63  63 100 SE5       29.94S
MONROE         CLOUDY    64  61  88 S9        29.93F
JANESVILLE     CLOUDY    66  61  82 S6        29.93F
$$

WIZ051-052-058>065-066-070>072-010600-
SOUTHEAST WISCONSIN

CITY           SKY/WX    TMP DP  RH WIND       PRES   REMARKS
MILWAUKEE      MOCLDY    60  56  86 SE6       29.96F
WAUKESHA       CLOUDY    61  59  94 E5        29.97F
MILWAUKEE/TIMM CLOUDY    61  52  72 SE3       29.98S
RACINE         CLOUDY    62  54  74 S7        29.98F
BURLINGTON     PTCLDY    62  60  93 CALM      29.97R
KENOSHA        MOCLDY    63  58  83 SE6       29.97F
FOND DU LAC    LGT RAIN  62  57  83 SE13      29.95S
SHEBOYGAN      LGT RAIN  57  52  83 W6        29.97S
WEST BEND      CLOUDY    55  52  88 CALM      29.97F
JUNEAU         RAIN      63  60  90 SE5       29.96S
$$

LSZ147-162-010600-
LAKE SUPERIOR

STATION/POSITION TIME  TEMP    WIND        PRES    WAVE
                       AIR SEA DIR/SP/G            HT/PER
                 (UTC) (F)     (DEG/KT/KT) (MB)    (FT/S)
W MID LAKE BUOY  0450   42 38   90/ 10/ 10 1011.9F   3/ 5
DEVILS ISLAND    0400   42      50/  6/  7 1012.2F
PORT WING        0400   41      20/  9/ 10 1012.5
SAXON HARBOR     0440   50     300/  3/  6 1010.8S
$$

LMZ867-665-643>646-010600-
LAKE MICHIGAN

STATION/POSITION TIME  TEMP    WIND        PRES    WAVE
                       AIR SEA DIR/SP/G            HT/PER
                 (UTC) (F)     (DEG/KT/KT) (MB)    (FT/S)
CHAMBERS ISLAND  0400   60      CALM  /  3 1014.9F
N MID LAKE BUOY  0450   53 48  150/  8/  8 1014.7S   1/ 3
NORTHPORT PIER   0400   58     120/  2/  4 1014.9F
SISTER BAY       0405   61      90/ 12/ 15   N/A
ALGOMA LAKESHORE 0417             CALM       N/A
KEWAUNEE LAKESHO 0400   53      20/  3/  4 1014.1F
SHEBOYGAN LAKESH 0500   58     250/  5/  5 1015.1R
PORT WASHINGTON  0400   57     260/  2/  2 1015.6S
S MID LAKE BUOY  0450   58 54  110/ 10/ 12 1014.6R   1/ 4
KENOSHA   LAKESH 0400   59     180/  5/  7 1015.2R
$$

TC  - TEMPERATURE IN CELSIUS
VSB - VISIBILITY IN STATUTE MILES
WCI - WIND CHILL INDEX
HX  - HEAT INDEX





USA.gov is the U.S. government's official web portal to all federal, state and local government web resources and services.